RH
26 21 20 19 19 18 19 21 25 25 23 26 35 42 47 49 51 45 48 50 56 58 58 56 65 69 56 52 58 60 74 78 84 73 75 85 94 97 97 98 97 97 96 98
30 24 21 21 20 19 21 23 26 27 23 36 44 46 54 48 45 44 50 49 58 56 65 58 60 45 40 42 42 50 56 75 79 76 79 89 95 98 98 98 97 97 97 98
33 29 24 23 21 19 20 23 29 30 33 39 44 47 50 44 48 51 52 43 51 40 47 36 43 35 36 45 55 60 65 68 84 90 97 98 98 97 97 98 98 97 98 98
40 39 31 25 23 21 22 25 37 40 44 44 46 46 49 46 44 44 39 33 34 40 43 39 40 49 47 42 45 55 62 68 72 85 93 97 97 96 94 97 98 98 95 97
45 44 41 34 25 23 24 32 38 40 42 43 44 43 47 47 48 40 33 36 35 37 45 49 56 57 53 56 53 56 61 67 72 78 85 90 93 91 86 93 97 97 97 97
48 49 45 40 32 28 33 37 41 43 44 45 45 50 48 44 48 42 36 36 41 36 38 51 53 55 54 50 53 57 65 68 68 75 73 87 85 91 85 85 92 98 97 96
52 51 47 39 36 35 37 41 41 43 47 46 46 48 42 36 41 46 41 36 39 38 37 54 58 50 55 47 46 47 53 65 66 74 64 85 79 78 78 79 88 92 95 93
57 51 46 40 38 39 38 42 45 46 49 48 45 43 37 33 35 37 40 36 40 38 40 49 52 46 40 40 40 46 44 54 64 66 70 72 74 76 79 83 71 81 87 84
57 54 46 42 40 43 39 45 46 49 48 48 44 41 39 42 43 38 36 34 36 37 44 46 62 66 60 51 47 41 41 43 49 60 71 79 74 64 63 65 69 68 68 69
58 52 44 43 45 46 45 45 44 49 51 49 44 38 40 44 47 47 40 39 39 39 48 59 63 65 63 67 68 61 62 65 69 73 76 75 68 70 72 78 76 74 74 70
56 50 47 46 46 48 49 43 46 47 50 50 47 39 39 45 47 49 41 38 41 44 51 59 66 73 73 76 72 74 77 80 81 85 85 79 72 79 87 82 81 82 81 81
50 49 51 47 46 48 49 44 47 48 49 48 51 44 47 49 51 49 47 45 45 47 47 53 61 69 75 80 79 78 81 75 80 82 77 74 80 88 91 92 87 77 73 69
51 53 49 46 46 48 48 44 47 48 48 49 55 48 53 58 59 58 60 58 59 56 53 52 55 64 67 74 77 77 75 78 86 86 78 83 84 90 91 84 77 67 65 72
57 54 51 46 45 47 45 44 48 44 45 54 53 51 60 65 67 70 72 73 75 78 80 72 60 60 63 69 68 71 73 83 84 84 82 83 88 83 82 77 55 46 50 66
56 54 52 47 48 44 43 45 47 42 45 50 54 59 64 73 73 77 80 81 79 82 85 80 77 68 71 72 76 76 69 73 82 86 89 88 74 74 65 48 37 43 46 47
54 51 49 47 48 43 43 48 54 52 53 48 56 61 62 71 78 83 85 88 89 87 86 77 77 79 81 79 80 67 70 76 83 93 97 82 73 65 49 32 33 33 36 39
56 50 48 49 48 41 48 56 56 53 56 53 55 53 64 72 78 85 88 91 91 89 84 74 78 86 91 90 85 72 79 87 94 98 96 76 65 48 32 33 33 31 33 35
53 49 50 50 44 44 52 55 51 52 56 59 63 62 64 73 79 85 89 93 90 86 79 73 78 91 92 89 77 78 82 89 93 96 95 71 48 31 31 31 31 31 32 34
50 51 49 47 46 50 55 53 49 55 60 64 69 71 69 73 83 89 90 91 89 85 79 77 84 92 90 80 79 79 89 91 93 98 83 50 30 31 34 37 37 38 38 38
50 48 46 49 50 54 56 44 49 53 59 65 72 73 79 87 92 97 95 94 92 87 80 79 82 79 76 81 83 88 93 94 95 92 61 31 31 35 40 43 44 45 43 41
49 48 49 52 53 54 44 48 56 61 64 66 73 83 88 93 96 97 98 96 93 89 80 84 81 79 75 83 87 92 96 98 97 85 45 30 33 39 45 46 47 48 48 44
46 51 50 52 49 49 47 60 64 72 76 79 86 88 91 96 95 92 95 95 91 87 84 85 84 77 79 89 95 98 99 98 89 71 34 31 36 43 49 52 52 52 50 48
44 48 51 52 57 56 60 77 80 86 88 90 92 94 94 97 95 95 97 96 92 86 89 88 82 86 86 93 98 99 98 91 78 52 30 34 40 46 54 58 60 56 50 51
52 55 57 59 63 67 69 76 81 82 89 94 94 95 97 99 97 97 98 96 95 94 92 86 92 92 93 98 98 95 89 76 60 34 34 40 46 54 62 65 62 53 53 55
57 57 61 62 64 70 74 78 80 82 88 93 93 93 95 97 98 98 98 98 96 91 87 95 96 98 99 94 91 85 73 57 38 37 43 50 58 65 66 62 58 56 58 58
51 55 56 60 67 70 75 78 82 85 88 89 91 91 93 96 98 98 98 98 93 91 98 98 98 96 91 84 74 65 55 41 41 47 54 60 62 62 61 60 61 59 61 60
48 51 57 62 66 70 77 80 82 83 84 88 90 94 97 98 98 98 98 96 95 98 98 98 91 84 76 66 61 52 43 44 47 52 56 61 64 63 64 62 60 60 63 64